Location: Acequia del Cap
(41.7000°N, 0.6167°E)
Time: 00:29:23
(UTC+00:00)

Cosmos 1328 - Pass Details

Date: 07 August 2020
Orbit: 537 x 547 km, 82.5° (Epoch: 22 September)

Event Time Altitude Azimuth Distance (km) Brightness Sun altitude
Rises 03:54:03 0° 352° (N) 2,718 7.7 -11.3°
Reaches altitude 10° 03:56:13 10° 353° (N) 1,822 6.8 -11.0°
Maximum altitude 04:00:14 85° 82° (E) 554 3.8 -10.4°
Drops below altitude 10° 04:04:14 10° 172° (S) 1,811 6.2 -9.7°
Sets 04:06:23 0° 172° (S) 2,700 7.1 -9.4°
